Time,TemperatureF,DewpointF,PressureIn,WindDirection,WindDirectionDegrees,WindSpeedMPH,WindSpeedGustMPH,Humidity,HourlyPrecipIn,Conditions,Clouds,dailyrainin,SoftwareType,DateUTC
2013-10-13 00:02:00,64.2,61.8,30.01,North,359,0.0,0.0,92,0.00,,,0.00,Wunderground v.1.13,2013-10-13 04:02:00,
2013-10-13 00:04:00,64.0,61.6,30.01,North,359,0.0,0.0,92,0.00,,,0.00,Wunderground v.1.13,2013-10-13 04:04:00,
2013-10-13 00:10:00,64.0,61.6,30.01,North,359,0.0,0.0,92,0.00,,,0.00,Wunderground v.1.13,2013-10-13 04:10:00,
2013-10-13 00:12:00,64.0,61.6,30.01,North,0,0.0,3.0,92,0.00,,,0.00,Wunderground v.1.13,2013-10-13 04:12:00,
2013-10-13 00:18:00,64.0,61.6,30.01,North,349,1.0,1.0,92,0.00,,,0.00,Wunderground v.1.13,2013-10-13 04:18:00,
2013-10-13 00:24:00,63.9,61.5,30.01,North,349,0.0,1.0,92,0.00,,,0.00,Wunderground v.1.13,2013-10-13 04:24:00,
2013-10-13 00:30:00,63.9,61.8,30.01,North,349,0.0,0.0,93,0.00,,,0.00,Wunderground v.1.13,2013-10-13 04:30:00,
2013-10-13 00:36:00,63.7,61.6,30.01,North,349,0.0,2.0,93,0.00,,,0.00,Wunderground v.1.13,2013-10-13 04:36:00,
2013-10-13 00:42:00,63.7,61.6,30.01,North,349,0.0,0.0,93,0.00,,,0.01,Wunderground v.1.13,2013-10-13 04:42:00,
2013-10-13 00:48:00,63.5,61.4,30.01,North,349,0.0,0.0,93,0.00,,,0.01,Wunderground v.1.13,2013-10-13 04:48:00,
2013-10-13 00:52:00,63.5,61.7,30.01,North,349,0.0,0.0,94,0.00,,,0.01,Wunderground v.1.13,2013-10-13 04:52:00,
2013-10-13 00:58:00,63.4,61.6,30.01,North,349,0.0,0.0,94,0.00,,,0.01,Wunderground v.1.13,2013-10-13 04:58:00,
2013-10-13 01:04:00,63.4,61.6,30.01,North,349,0.0,2.0,94,0.00,,,0.01,Wunderground v.1.13,2013-10-13 05:04:00,
2013-10-13 01:10:00,63.2,61.7,30.01,North,349,0.0,0.0,95,0.00,,,0.01,Wunderground v.1.13,2013-10-13 05:10:00,
2013-10-13 01:16:00,63.2,61.7,30.01,North,349,0.0,0.0,95,0.00,,,0.01,Wunderground v.1.13,2013-10-13 05:16:00,
2013-10-13 01:22:00,63.2,61.7,30.01,North,349,0.0,0.0,95,0.00,,,0.01,Wunderground v.1.13,2013-10-13 05:22:00,
2013-10-13 01:28:00,63.2,61.7,30.01,North,349,0.0,2.0,95,0.00,,,0.01,Wunderground v.1.13,2013-10-13 05:28:00,
2013-10-13 01:34:00,63.1,61.6,30.01,North,349,0.0,0.0,95,0.00,,,0.01,Wunderground v.1.13,2013-10-13 05:34:00,
2013-10-13 01:40:00,63.1,61.6,30.01,North,349,0.0,0.0,95,0.00,,,0.01,Wunderground v.1.13,2013-10-13 05:40:00,
2013-10-13 01:46:00,63.1,61.6,30.01,North,349,0.0,0.0,95,0.00,,,0.01,Wunderground v.1.13,2013-10-13 05:46:00,
2013-10-13 01:52:00,63.1,61.6,30.01,North,349,0.0,0.0,95,0.00,,,0.01,Wunderground v.1.13,2013-10-13 05:52:00,
2013-10-13 01:58:00,63.1,61.6,30.01,North,349,0.0,0.0,95,0.00,,,0.01,Wunderground v.1.13,2013-10-13 05:58:00,
2013-10-13 02:04:00,63.1,61.6,30.02,North,349,0.0,0.0,95,0.00,,,0.01,Wunderground v.1.13,2013-10-13 06:04:00,
2013-10-13 02:10:00,63.1,61.9,30.02,North,349,0.0,0.0,96,0.00,,,0.01,Wunderground v.1.13,2013-10-13 06:10:00,
2013-10-13 02:16:00,63.1,61.9,30.01,North,349,0.0,0.0,96,0.00,,,0.01,Wunderground v.1.13,2013-10-13 06:16:00,
2013-10-13 02:22:00,63.1,61.9,30.01,NW,322,0.0,2.0,96,0.00,,,0.01,Wunderground v.1.13,2013-10-13 06:22:00,
2013-10-13 02:28:00,63.1,61.9,30.01,NW,322,0.0,0.0,96,0.00,,,0.01,Wunderground v.1.13,2013-10-13 06:28:00,
2013-10-13 02:34:00,63.1,61.9,30.02,NNW,347,0.0,2.0,96,0.00,,,0.01,Wunderground v.1.13,2013-10-13 06:34:00,
2013-10-13 02:40:00,63.1,61.9,30.02,North,350,1.0,1.0,96,0.00,,,0.01,Wunderground v.1.13,2013-10-13 06:40:00,
2013-10-13 02:46:00,63.1,61.9,30.01,North,350,0.0,1.0,96,0.00,,,0.01,Wunderground v.1.13,2013-10-13 06:46:00,
2013-10-13 02:52:00,63.1,61.9,30.01,North,350,0.0,0.0,96,0.00,,,0.01,Wunderground v.1.13,2013-10-13 06:52:00,
2013-10-13 02:58:00,63.1,61.9,30.01,North,349,0.0,0.0,96,0.00,,,0.01,Wunderground v.1.13,2013-10-13 06:58:00,
2013-10-13 03:04:00,63.1,61.9,30.02,North,350,0.0,0.0,96,0.00,,,0.01,Wunderground v.1.13,2013-10-13 07:04:00,
2013-10-13 03:10:00,63.1,61.9,30.02,NW,313,0.0,1.0,96,0.00,,,0.01,Wunderground v.1.13,2013-10-13 07:10:00,
2013-10-13 03:16:00,62.9,61.7,30.02,NW,306,0.0,1.0,96,0.00,,,0.01,Wunderground v.1.13,2013-10-13 07:16:00,
2013-10-13 03:22:00,62.9,61.7,30.02,NW,306,0.0,0.0,96,0.00,,,0.01,Wunderground v.1.13,2013-10-13 07:22:00,
2013-10-13 03:28:00,62.9,61.7,30.02,North,354,0.0,1.0,96,0.00,,,0.01,Wunderground v.1.13,2013-10-13 07:28:00,
2013-10-13 03:34:00,62.9,61.7,30.02,NNW,332,0.0,0.0,96,0.00,,,0.01,Wunderground v.1.13,2013-10-13 07:34:00,
2013-10-13 03:40:00,62.9,61.7,30.02,North,0,1.0,3.0,96,0.00,,,0.01,Wunderground v.1.13,2013-10-13 07:40:00,
2013-10-13 03:46:00,62.9,61.7,30.02,NW,315,1.0,1.0,96,0.00,,,0.01,Wunderground v.1.13,2013-10-13 07:46:00,
2013-10-13 03:52:00,62.7,61.5,30.02,NW,315,0.0,1.0,96,0.00,,,0.01,Wunderground v.1.13,2013-10-13 07:52:00,
2013-10-13 03:58:00,62.7,61.5,30.02,North,353,0.0,1.0,96,0.00,,,0.01,Wunderground v.1.13,2013-10-13 07:58:00,
2013-10-13 04:04:00,62.7,61.5,30.02,North,352,1.0,3.0,96,0.00,,,0.01,Wunderground v.1.13,2013-10-13 08:04:00,
2013-10-13 04:10:00,62.7,61.5,30.02,North,352,0.0,1.0,96,0.00,,,0.01,Wunderground v.1.13,2013-10-13 08:10:00,
2013-10-13 04:16:00,62.7,61.5,30.02,NNW,346,0.0,0.0,96,0.00,,,0.01,Wunderground v.1.13,2013-10-13 08:16:00,
2013-10-13 04:22:00,62.7,61.5,30.02,NNW,346,0.0,0.0,96,0.00,,,0.01,Wunderground v.1.13,2013-10-13 08:22:00,
2013-10-13 04:28:00,62.6,61.4,30.02,NNW,335,0.0,0.0,96,0.00,,,0.01,Wunderground v.1.13,2013-10-13 08:28:00,
2013-10-13 04:34:00,62.6,61.4,30.03,NNW,335,0.0,2.0,96,0.00,,,0.01,Wunderground v.1.13,2013-10-13 08:34:00,
2013-10-13 04:40:00,62.6,61.4,30.03,NNW,335,0.0,0.0,96,0.00,,,0.01,Wunderground v.1.13,2013-10-13 08:40:00,
2013-10-13 04:46:00,62.6,61.4,30.03,NW,311,0.0,2.0,96,0.00,,,0.01,Wunderground v.1.13,2013-10-13 08:46:00,
2013-10-13 04:54:00,62.4,61.2,30.03,NW,318,1.0,1.0,96,0.00,,,0.01,Wunderground v.1.13,2013-10-13 08:54:00,
2013-10-13 05:00:00,62.4,61.2,30.03,North,359,0.0,0.0,96,0.00,,,0.01,Wunderground v.1.13,2013-10-13 09:00:00,
2013-10-13 05:06:00,62.4,61.2,30.03,North,359,0.0,0.0,96,0.00,,,0.01,Wunderground v.1.13,2013-10-13 09:06:00,
2013-10-13 05:12:00,62.4,61.2,30.03,North,359,0.0,0.0,96,0.00,,,0.01,Wunderground v.1.13,2013-10-13 09:12:00,
2013-10-13 05:18:00,62.4,61.2,30.03,North,359,0.0,0.0,96,0.00,,,0.01,Wunderground v.1.13,2013-10-13 09:18:00,
2013-10-13 05:24:00,62.3,61.1,30.03,North,359,0.0,0.0,96,0.00,,,0.01,Wunderground v.1.13,2013-10-13 09:24:00,
2013-10-13 05:30:00,62.3,61.1,30.03,North,359,0.0,0.0,96,0.00,,,0.01,Wunderground v.1.13,2013-10-13 09:30:00,
2013-10-13 05:36:00,62.3,61.1,30.04,North,359,0.0,0.0,96,0.00,,,0.01,Wunderground v.1.13,2013-10-13 09:36:00,
2013-10-13 05:42:00,62.3,61.1,30.04,North,357,0.0,0.0,96,0.00,,,0.01,Wunderground v.1.13,2013-10-13 09:42:00,
2013-10-13 05:48:00,62.1,60.9,30.04,NNW,347,0.0,2.0,96,0.00,,,0.01,Wunderground v.1.13,2013-10-13 09:48:00,
2013-10-13 05:54:00,62.1,60.7,30.04,North,353,1.0,1.0,95,0.00,,,0.01,Wunderground v.1.13,2013-10-13 09:54:00,
2013-10-13 06:00:00,62.1,60.7,30.04,North,353,0.0,0.0,95,0.00,,,0.01,Wunderground v.1.13,2013-10-13 10:00:00,
2013-10-13 06:06:00,62.1,60.7,30.04,North,353,0.0,0.0,95,0.00,,,0.01,Wunderground v.1.13,2013-10-13 10:06:00,
2013-10-13 06:12:00,62.1,60.7,30.04,North,353,0.0,0.0,95,0.00,,,0.01,Wunderground v.1.13,2013-10-13 10:12:00,
2013-10-13 06:18:00,62.1,60.7,30.05,North,353,0.0,0.0,95,0.00,,,0.01,Wunderground v.1.13,2013-10-13 10:18:00,
2013-10-13 06:24:00,62.1,60.7,30.05,North,352,0.0,0.0,95,0.00,,,0.01,Wunderground v.1.13,2013-10-13 10:24:00,
2013-10-13 06:30:00,62.1,60.7,30.05,NNW,344,0.0,0.0,95,0.00,,,0.01,Wunderground v.1.13,2013-10-13 10:30:00,
2013-10-13 06:36:00,62.1,60.7,30.05,NNW,346,0.0,0.0,95,0.00,,,0.01,Wunderground v.1.13,2013-10-13 10:36:00,
2013-10-13 06:42:00,62.0,60.6,30.05,NNW,344,0.0,0.0,95,0.00,,,0.01,Wunderground v.1.13,2013-10-13 10:42:00,
2013-10-13 06:48:00,62.0,60.6,30.06,NNW,344,0.0,0.0,95,0.00,,,0.01,Wunderground v.1.13,2013-10-13 10:48:00,
2013-10-13 06:54:00,62.0,60.6,30.06,NNW,344,0.0,0.0,95,0.00,,,0.01,Wunderground v.1.13,2013-10-13 10:54:00,
2013-10-13 07:00:00,62.0,60.6,30.06,NNW,344,0.0,0.0,95,0.00,,,0.01,Wunderground v.1.13,2013-10-13 11:00:00,
2013-10-13 07:06:00,62.0,60.6,30.06,North,356,0.0,0.0,95,0.00,,,0.01,Wunderground v.1.13,2013-10-13 11:06:00,
2013-10-13 07:12:00,62.0,60.6,30.06,North,356,0.0,0.0,95,0.00,,,0.01,Wunderground v.1.13,2013-10-13 11:12:00,
2013-10-13 07:18:00,62.0,60.6,30.06,NNW,330,0.0,0.0,95,0.00,,,0.01,Wunderground v.1.13,2013-10-13 11:18:00,
2013-10-13 07:24:00,62.0,60.6,30.06,NW,326,0.0,0.0,95,0.00,,,0.01,Wunderground v.1.13,2013-10-13 11:24:00,
2013-10-13 07:30:00,62.0,60.6,30.06,NW,326,0.0,0.0,95,0.00,,,0.01,Wunderground v.1.13,2013-10-13 11:30:00,
2013-10-13 07:36:00,62.0,60.6,30.06,NW,326,0.0,0.0,95,0.00,,,0.01,Wunderground v.1.13,2013-10-13 11:36:00,
2013-10-13 07:42:00,62.0,60.6,30.06,NNW,328,0.0,0.0,95,0.00,,,0.01,Wunderground v.1.13,2013-10-13 11:42:00,
2013-10-13 07:48:00,62.0,60.6,30.07,NW,325,0.0,0.0,95,0.00,,,0.01,Wunderground v.1.13,2013-10-13 11:48:00,
2013-10-13 07:54:00,62.0,60.6,30.07,NW,325,0.0,0.0,95,0.00,,,0.01,Wunderground v.1.13,2013-10-13 11:54:00,
2013-10-13 08:00:00,62.0,60.6,30.07,NW,325,0.0,0.0,95,0.00,,,0.01,Wunderground v.1.13,2013-10-13 12:00:00,
2013-10-13 08:06:00,62.0,60.6,30.07,NW,325,0.0,0.0,95,0.00,,,0.01,Wunderground v.1.13,2013-10-13 12:06:00,
2013-10-13 08:12:00,62.0,60.6,30.07,NW,325,0.0,0.0,95,0.00,,,0.01,Wunderground v.1.13,2013-10-13 12:12:00,
2013-10-13 08:18:00,62.1,60.7,30.08,NNW,335,0.0,0.0,95,0.00,,,0.01,Wunderground v.1.13,2013-10-13 12:18:00,
2013-10-13 08:24:00,62.1,60.4,30.08,NNW,335,0.0,1.0,94,0.00,,,0.01,Wunderground v.1.13,2013-10-13 12:24:00,
2013-10-13 08:30:00,62.1,60.4,30.08,NW,326,1.0,1.0,94,0.00,,,0.01,Wunderground v.1.13,2013-10-13 12:30:00,
2013-10-13 08:36:00,62.3,60.6,30.09,NW,326,1.0,1.0,94,0.00,,,0.01,Wunderground v.1.13,2013-10-13 12:36:00,
2013-10-13 08:42:00,62.3,60.6,30.09,NW,326,0.0,0.0,94,0.00,,,0.01,Wunderground v.1.13,2013-10-13 12:42:00,
2013-10-13 08:48:00,62.3,60.6,30.09,NNW,344,0.0,0.0,94,0.00,,,0.01,Wunderground v.1.13,2013-10-13 12:48:00,
2013-10-13 08:54:00,62.3,60.6,30.09,NNW,343,1.0,1.0,94,0.00,,,0.01,Wunderground v.1.13,2013-10-13 12:54:00,
2013-10-13 09:00:00,62.3,60.6,30.09,North,352,1.0,1.0,94,0.00,,,0.01,Wunderground v.1.13,2013-10-13 13:00:00,
2013-10-13 09:06:00,62.3,60.6,30.10,NNW,336,0.0,0.0,94,0.00,,,0.01,Wunderground v.1.13,2013-10-13 13:06:00,
2013-10-13 09:12:00,62.3,60.6,30.10,North,0,1.0,1.0,94,0.00,,,0.01,Wunderground v.1.13,2013-10-13 13:12:00,
2013-10-13 09:18:00,62.3,60.6,30.10,North,350,0.0,5.0,94,0.00,,,0.01,Wunderground v.1.13,2013-10-13 13:18:00,
2013-10-13 09:24:00,62.3,60.8,30.10,North,349,1.0,1.0,95,0.00,,,0.01,Wunderground v.1.13,2013-10-13 13:24:00,
2013-10-13 09:30:00,62.3,60.8,30.10,North,349,0.0,0.0,95,0.00,,,0.01,Wunderground v.1.13,2013-10-13 13:30:00,
2013-10-13 09:36:00,62.3,60.8,30.11,NNW,329,0.0,0.0,95,0.00,,,0.01,Wunderground v.1.13,2013-10-13 13:36:00,
2013-10-13 09:42:00,62.4,60.9,30.11,North,349,0.0,0.0,95,0.00,,,0.01,Wunderground v.1.13,2013-10-13 13:42:00,
2013-10-13 09:48:00,62.4,60.9,30.11,North,349,0.0,0.0,95,0.00,,,0.01,Wunderground v.1.13,2013-10-13 13:48:00,
2013-10-13 09:54:00,62.6,61.1,30.11,North,349,0.0,0.0,95,0.00,,,0.01,Wunderground v.1.13,2013-10-13 13:54:00,
2013-10-13 10:00:00,62.7,61.2,30.11,NNW,344,0.0,0.0,95,0.00,,,0.01,Wunderground v.1.13,2013-10-13 14:00:00,
2013-10-13 10:06:00,62.7,60.9,30.11,NNW,343,0.0,0.0,94,0.00,,,0.01,Wunderground v.1.13,2013-10-13 14:06:00,
2013-10-13 10:12:00,62.9,61.1,30.11,NNW,336,0.0,2.0,94,0.00,,,0.01,Wunderground v.1.13,2013-10-13 14:12:00,
2013-10-13 10:18:00,63.1,61.3,30.11,North,10,1.0,1.0,94,0.00,,,0.01,Wunderground v.1.13,2013-10-13 14:18:00,
2013-10-13 10:24:00,63.2,61.4,30.11,NNW,335,1.0,2.0,94,0.00,,,0.01,Wunderground v.1.13,2013-10-13 14:24:00,
2013-10-13 10:30:00,63.2,61.1,30.11,NNE,25,2.0,2.0,93,0.00,,,0.01,Wunderground v.1.13,2013-10-13 14:30:00,
2013-10-13 10:36:00,63.4,61.3,30.12,NNW,332,1.0,1.0,93,0.00,,,0.01,Wunderground v.1.13,2013-10-13 14:36:00,
2013-10-13 10:42:00,63.5,61.4,30.12,NNW,330,0.0,0.0,93,0.00,,,0.01,Wunderground v.1.13,2013-10-13 14:42:00,
2013-10-13 10:48:00,63.5,61.4,30.12,NNW,336,0.0,0.0,93,0.00,,,0.01,Wunderground v.1.13,2013-10-13 14:48:00,
2013-10-13 10:54:00,63.5,61.1,30.12,NNW,343,1.0,1.0,92,0.00,,,0.01,Wunderground v.1.13,2013-10-13 14:54:00,
2013-10-13 11:00:00,63.7,61.3,30.12,North,354,1.0,1.0,92,0.00,,,0.01,Wunderground v.1.13,2013-10-13 15:00:00,
2013-10-13 11:06:00,63.7,61.3,30.12,NNW,333,1.0,1.0,92,0.00,,,0.01,Wunderground v.1.13,2013-10-13 15:06:00,
2013-10-13 11:12:00,63.9,61.5,30.12,NNW,330,1.0,1.0,92,0.00,,,0.01,Wunderground v.1.13,2013-10-13 15:12:00,
2013-10-13 11:18:00,63.9,61.5,30.12,NW,308,2.0,2.0,92,0.00,,,0.01,Wunderground v.1.13,2013-10-13 15:18:00,
2013-10-13 11:24:00,64.0,61.6,30.12,NNW,332,1.0,1.0,92,0.00,,,0.01,Wunderground v.1.13,2013-10-13 15:24:00,
2013-10-13 11:30:00,64.2,61.8,30.12,NNW,336,0.0,7.0,92,0.00,,,0.01,Wunderground v.1.13,2013-10-13 15:30:00,
2013-10-13 11:36:00,64.2,61.8,30.12,North,0,0.0,0.0,92,0.00,,,0.02,Wunderground v.1.13,2013-10-13 15:36:00,
2013-10-13 11:42:00,64.3,61.6,30.12,North,0,0.0,2.0,91,0.00,,,0.02,Wunderground v.1.13,2013-10-13 15:42:00,
2013-10-13 11:48:00,64.3,61.6,30.11,North,353,0.0,0.0,91,0.00,,,0.02,Wunderground v.1.13,2013-10-13 15:48:00,
2013-10-13 11:54:00,64.5,61.8,30.11,NW,322,1.0,1.0,91,0.00,,,0.02,Wunderground v.1.13,2013-10-13 15:54:00,
2013-10-13 12:00:00,64.5,61.8,30.11,NNW,332,1.0,1.0,91,0.00,,,0.02,Wunderground v.1.13,2013-10-13 16:00:00,
2013-10-13 12:06:00,64.7,62.0,30.12,NNW,333,0.0,0.0,91,0.00,,,0.02,Wunderground v.1.13,2013-10-13 16:06:00,
2013-10-13 12:12:00,64.7,62.0,30.12,NNE,23,0.0,0.0,91,0.00,,,0.02,Wunderground v.1.13,2013-10-13 16:12:00,
2013-10-13 12:18:00,64.8,62.1,30.11,NNE,25,0.0,1.0,91,0.00,,,0.02,Wunderground v.1.13,2013-10-13 16:18:00,
2013-10-13 12:24:00,64.8,62.1,30.11,NE,41,1.0,1.0,91,0.00,,,0.02,Wunderground v.1.13,2013-10-13 16:24:00,
2013-10-13 12:30:00,64.8,62.1,30.11,North,353,0.0,0.0,91,0.00,,,0.02,Wunderground v.1.13,2013-10-13 16:30:00,
2013-10-13 12:36:00,65.0,62.3,30.11,North,0,1.0,1.0,91,0.00,,,0.02,Wunderground v.1.13,2013-10-13 16:36:00,
2013-10-13 12:42:00,65.0,62.3,30.11,NNW,346,1.0,6.0,91,0.00,,,0.02,Wunderground v.1.13,2013-10-13 16:42:00,
2013-10-13 12:48:00,65.2,62.2,30.11,North,352,1.0,1.0,90,0.00,,,0.02,Wunderground v.1.13,2013-10-13 16:48:00,
2013-10-13 12:54:00,65.3,62.6,30.11,North,353,0.0,2.0,91,0.00,,,0.02,Wunderground v.1.13,2013-10-13 16:54:00,
2013-10-13 13:00:00,65.5,62.5,30.11,NNE,16,1.0,1.0,90,0.00,,,0.02,Wunderground v.1.13,2013-10-13 17:00:00,
2013-10-13 13:06:00,65.5,62.5,30.11,NW,326,1.0,1.0,90,0.00,,,0.02,Wunderground v.1.13,2013-10-13 17:06:00,
2013-10-13 13:12:00,65.6,62.6,30.11,NW,326,1.0,1.0,90,0.00,,,0.02,Wunderground v.1.13,2013-10-13 17:12:00,
2013-10-13 13:18:00,65.8,62.5,30.10,North,0,1.0,1.0,89,0.00,,,0.02,Wunderground v.1.13,2013-10-13 17:18:00,
2013-10-13 13:24:00,65.8,62.5,30.10,NNW,328,1.0,1.0,89,0.00,,,0.02,Wunderground v.1.13,2013-10-13 17:24:00,
2013-10-13 13:30:00,66.0,62.7,30.10,NNW,328,0.0,2.0,89,0.00,,,0.02,Wunderground v.1.13,2013-10-13 17:30:00,
2013-10-13 13:36:00,66.0,62.7,30.10,North,352,1.0,1.0,89,0.00,,,0.02,Wunderground v.1.13,2013-10-13 17:36:00,
2013-10-13 13:42:00,66.1,62.8,30.10,North,352,1.0,1.0,89,0.00,,,0.02,Wunderground v.1.13,2013-10-13 17:42:00,
2013-10-13 13:48:00,66.1,62.8,30.09,NNW,340,0.0,0.0,89,0.00,,,0.02,Wunderground v.1.13,2013-10-13 17:48:00,
2013-10-13 13:54:00,66.3,63.0,30.09,NW,323,0.0,0.0,89,0.00,,,0.02,Wunderground v.1.13,2013-10-13 17:54:00,
2013-10-13 14:00:00,66.3,63.0,30.09,NNE,28,0.0,0.0,89,0.00,,,0.02,Wunderground v.1.13,2013-10-13 18:00:00,
2013-10-13 14:06:00,66.3,63.0,30.09,North,10,0.0,0.0,89,0.00,,,0.02,Wunderground v.1.13,2013-10-13 18:06:00,
2013-10-13 14:12:00,66.4,62.7,30.09,NNW,346,0.0,0.0,88,0.00,,,0.02,Wunderground v.1.13,2013-10-13 18:12:00,
2013-10-13 14:18:00,66.4,62.7,30.09,NNW,335,1.0,1.0,88,0.00,,,0.02,Wunderground v.1.13,2013-10-13 18:18:00,
2013-10-13 14:24:00,66.6,62.9,30.09,North,0,1.0,2.0,88,0.00,,,0.02,Wunderground v.1.13,2013-10-13 18:24:00,
2013-10-13 14:30:00,66.6,62.9,30.09,North,0,1.0,1.0,88,0.00,,,0.02,Wunderground v.1.13,2013-10-13 18:30:00,
2013-10-13 14:36:00,66.6,62.9,30.09,North,357,1.0,1.0,88,0.00,,,0.02,Wunderground v.1.13,2013-10-13 18:36:00,
2013-10-13 14:42:00,66.6,62.9,30.09,NNW,347,2.0,2.0,88,0.00,,,0.02,Wunderground v.1.13,2013-10-13 18:42:00,
2013-10-13 14:48:00,66.6,62.9,30.09,NNW,330,1.0,1.0,88,0.00,,,0.02,Wunderground v.1.13,2013-10-13 18:48:00,
2013-10-13 14:54:00,66.6,63.3,30.09,North,356,0.0,0.0,89,0.00,,,0.02,Wunderground v.1.13,2013-10-13 18:54:00,
2013-10-13 15:00:00,66.6,62.9,30.09,NE,56,1.0,1.0,88,0.00,,,0.02,Wunderground v.1.13,2013-10-13 19:00:00,
2013-10-13 15:06:00,66.6,62.9,30.09,NNW,342,0.0,0.0,88,0.00,,,0.02,Wunderground v.1.13,2013-10-13 19:06:00,
2013-10-13 15:12:00,66.6,63.3,30.09,NNE,13,0.0,0.0,89,0.00,,,0.02,Wunderground v.1.13,2013-10-13 19:12:00,
2013-10-13 15:18:00,66.6,63.3,30.09,NNW,336,0.0,1.0,89,0.00,,,0.02,Wunderground v.1.13,2013-10-13 19:18:00,
2013-10-13 15:24:00,66.4,63.1,30.09,NNW,342,0.0,2.0,89,0.00,,,0.02,Wunderground v.1.13,2013-10-13 19:24:00,
2013-10-13 15:30:00,66.4,63.1,30.09,North,357,0.0,0.0,89,0.00,,,0.02,Wunderground v.1.13,2013-10-13 19:30:00,
2013-10-13 15:36:00,66.4,63.4,30.09,North,356,0.0,0.0,90,0.00,,,0.02,Wunderground v.1.13,2013-10-13 19:36:00,
2013-10-13 15:42:00,66.4,63.4,30.09,North,356,0.0,0.0,90,0.00,,,0.02,Wunderground v.1.13,2013-10-13 19:42:00,
2013-10-13 15:48:00,66.3,63.3,30.09,NNW,343,0.0,0.0,90,0.00,,,0.02,Wunderground v.1.13,2013-10-13 19:48:00,
2013-10-13 15:54:00,66.3,63.3,30.09,NW,322,1.0,1.0,90,0.00,,,0.02,Wunderground v.1.13,2013-10-13 19:54:00,
2013-10-13 16:00:00,66.3,63.3,30.09,NNW,346,1.0,1.0,90,0.00,,,0.02,Wunderground v.1.13,2013-10-13 20:00:00,
2013-10-13 16:06:00,66.3,63.3,30.09,North,354,0.0,0.0,90,0.00,,,0.02,Wunderground v.1.13,2013-10-13 20:06:00,
2013-10-13 16:12:00,66.3,63.3,30.09,NW,311,0.0,0.0,90,0.00,,,0.02,Wunderground v.1.13,2013-10-13 20:12:00,
2013-10-13 16:18:00,66.3,63.3,30.09,NW,313,0.0,0.0,90,0.00,,,0.02,Wunderground v.1.13,2013-10-13 20:18:00,
2013-10-13 16:24:00,66.4,63.4,30.09,NW,322,1.0,2.0,90,0.00,,,0.02,Wunderground v.1.13,2013-10-13 20:24:00,
2013-10-13 16:30:00,66.4,63.4,30.09,NNW,336,2.0,2.0,90,0.00,,,0.02,Wunderground v.1.13,2013-10-13 20:30:00,
2013-10-13 16:36:00,66.3,63.3,30.09,NNW,335,1.0,1.0,90,0.00,,,0.02,Wunderground v.1.13,2013-10-13 20:36:00,
2013-10-13 16:42:00,66.3,63.6,30.09,North,352,1.0,1.0,91,0.00,,,0.02,Wunderground v.1.13,2013-10-13 20:42:00,
2013-10-13 16:48:00,66.3,63.6,30.09,NW,306,0.0,0.0,91,0.00,,,0.02,Wunderground v.1.13,2013-10-13 20:48:00,
2013-10-13 16:54:00,66.1,63.7,30.09,NW,306,0.0,0.0,92,0.00,,,0.02,Wunderground v.1.13,2013-10-13 20:54:00,
2013-10-13 17:00:00,66.1,63.7,30.09,North,0,1.0,1.0,92,0.00,,,0.03,Wunderground v.1.13,2013-10-13 21:00:00,
2013-10-13 17:06:00,66.0,63.9,30.09,NNW,346,1.0,1.0,93,0.00,,,0.03,Wunderground v.1.13,2013-10-13 21:06:00,
2013-10-13 17:12:00,65.8,63.7,30.09,NNW,343,0.0,0.0,93,0.00,,,0.03,Wunderground v.1.13,2013-10-13 21:12:00,
2013-10-13 17:18:00,65.8,63.7,30.09,NNW,342,0.0,0.0,93,0.00,,,0.03,Wunderground v.1.13,2013-10-13 21:18:00,
2013-10-13 17:24:00,65.6,63.8,30.09,North,349,0.0,0.0,94,0.00,,,0.03,Wunderground v.1.13,2013-10-13 21:24:00,
2013-10-13 17:30:00,65.6,63.8,30.09,NNW,340,1.0,1.0,94,0.00,,,0.03,Wunderground v.1.13,2013-10-13 21:30:00,
2013-10-13 17:36:00,65.6,63.8,30.09,NE,49,1.0,1.0,94,0.00,,,0.03,Wunderground v.1.13,2013-10-13 21:36:00,
2013-10-13 17:42:00,65.5,63.7,30.09,North,0,0.0,0.0,94,0.00,,,0.03,Wunderground v.1.13,2013-10-13 21:42:00,
2013-10-13 17:48:00,65.5,63.7,30.09,North,359,0.0,0.0,94,0.00,,,0.03,Wunderground v.1.13,2013-10-13 21:48:00,
2013-10-13 17:54:00,65.5,63.7,30.09,North,354,0.0,0.0,94,0.00,,,0.03,Wunderground v.1.13,2013-10-13 21:54:00,
2013-10-13 18:00:00,65.5,63.7,30.09,North,354,0.0,0.0,94,0.00,,,0.03,Wunderground v.1.13,2013-10-13 22:00:00,
2013-10-13 18:06:00,65.5,63.7,30.09,North,354,0.0,0.0,94,0.00,,,0.03,Wunderground v.1.13,2013-10-13 22:06:00,
2013-10-13 18:12:00,65.3,63.5,30.09,North,8,0.0,0.0,94,0.00,,,0.03,Wunderground v.1.13,2013-10-13 22:12:00,
2013-10-13 18:18:00,65.3,63.5,30.10,NNW,329,0.0,0.0,94,0.00,,,0.03,Wunderground v.1.13,2013-10-13 22:18:00,
2013-10-13 18:24:00,65.3,63.5,30.10,NW,312,0.0,2.0,94,0.00,,,0.03,Wunderground v.1.13,2013-10-13 22:24:00,
2013-10-13 18:30:00,65.2,63.1,30.10,North,359,0.0,0.0,93,0.00,,,0.03,Wunderground v.1.13,2013-10-13 22:30:00,
2013-10-13 18:36:00,65.2,63.1,30.10,North,359,0.0,0.0,93,0.00,,,0.03,Wunderground v.1.13,2013-10-13 22:36:00,
2013-10-13 18:42:00,65.2,63.1,30.10,NNW,347,0.0,0.0,93,0.00,,,0.03,Wunderground v.1.13,2013-10-13 22:42:00,
2013-10-13 18:48:00,65.2,63.1,30.10,NW,319,1.0,1.0,93,0.00,,,0.03,Wunderground v.1.13,2013-10-13 22:48:00,
2013-10-13 18:54:00,65.2,63.1,30.10,NNW,347,1.0,1.0,93,0.00,,,0.03,Wunderground v.1.13,2013-10-13 22:54:00,
2013-10-13 19:00:00,65.0,62.6,30.10,North,350,1.0,1.0,92,0.00,,,0.03,Wunderground v.1.13,2013-10-13 23:00:00,
2013-10-13 19:06:00,65.0,62.6,30.11,NNW,344,1.0,1.0,92,0.00,,,0.03,Wunderground v.1.13,2013-10-13 23:06:00,
2013-10-13 19:12:00,65.0,62.6,30.11,NNW,330,0.0,0.0,92,0.00,,,0.03,Wunderground v.1.13,2013-10-13 23:12:00,
2013-10-13 19:18:00,65.0,62.6,30.11,NNW,332,0.0,0.0,92,0.00,,,0.03,Wunderground v.1.13,2013-10-13 23:18:00,
2013-10-13 19:24:00,65.0,62.6,30.11,NNW,339,0.0,2.0,92,0.00,,,0.03,Wunderground v.1.13,2013-10-13 23:24:00,
2013-10-13 19:30:00,65.0,62.3,30.11,North,354,0.0,0.0,91,0.00,,,0.03,Wunderground v.1.13,2013-10-13 23:30:00,
2013-10-13 19:36:00,64.8,62.1,30.11,NNW,339,1.0,1.0,91,0.00,,,0.03,Wunderground v.1.13,2013-10-13 23:36:00,
2013-10-13 19:42:00,64.8,62.1,30.11,North,349,0.0,4.0,91,0.00,,,0.03,Wunderground v.1.13,2013-10-13 23:42:00,
2013-10-13 19:48:00,64.8,62.1,30.12,East,96,0.0,0.0,91,0.00,,,0.03,Wunderground v.1.13,2013-10-13 23:48:00,
2013-10-13 19:54:00,64.7,62.0,30.12,North,0,0.0,0.0,91,0.00,,,0.03,Wunderground v.1.13,2013-10-13 23:54:00,
2013-10-13 20:00:00,64.5,62.1,30.12,North,0,0.0,0.0,92,0.00,,,0.03,Wunderground v.1.13,2013-10-14 00:00:00,
2013-10-13 20:06:00,64.5,62.1,30.12,North,0,0.0,0.0,92,0.00,,,0.04,Wunderground v.1.13,2013-10-14 00:06:00,
2013-10-13 20:12:00,64.3,61.9,30.12,NE,42,1.0,1.0,92,0.00,,,0.04,Wunderground v.1.13,2013-10-14 00:12:00,
2013-10-13 20:18:00,64.2,62.1,30.13,North,6,0.0,0.0,93,0.00,,,0.04,Wunderground v.1.13,2013-10-14 00:18:00,
2013-10-13 20:24:00,64.2,62.1,30.13,WNW,302,0.0,2.0,93,0.00,,,0.04,Wunderground v.1.13,2013-10-14 00:24:00,
2013-10-13 20:30:00,63.9,61.8,30.13,North,0,1.0,1.0,93,0.00,,,0.04,Wunderground v.1.13,2013-10-14 00:30:00,
2013-10-13 20:36:00,63.9,61.8,30.13,North,0,0.0,0.0,93,0.00,,,0.04,Wunderground v.1.13,2013-10-14 00:36:00,
2013-10-13 20:42:00,63.7,61.9,30.13,NNW,336,0.0,3.0,94,0.00,,,0.05,Wunderground v.1.13,2013-10-14 00:42:00,
2013-10-13 20:48:00,63.5,61.7,30.13,North,359,1.0,1.0,94,0.00,,,0.05,Wunderground v.1.13,2013-10-14 00:48:00,
2013-10-13 20:54:00,63.4,61.6,30.13,NE,51,0.0,0.0,94,0.05,,,0.06,Wunderground v.1.13,2013-10-14 00:54:00,
2013-10-13 21:00:00,63.2,61.4,30.13,NNW,328,0.0,1.0,94,0.05,,,0.06,Wunderground v.1.13,2013-10-14 01:00:00,
2013-10-13 21:06:00,63.2,61.4,30.13,North,352,1.0,1.0,94,0.00,,,0.06,Wunderground v.1.13,2013-10-14 01:06:00,
2013-10-13 21:12:00,63.1,61.3,30.13,NNW,329,0.0,0.0,94,0.00,,,0.07,Wunderground v.1.13,2013-10-14 01:12:00,
2013-10-13 21:18:00,62.9,61.1,30.13,North,350,1.0,2.0,94,0.10,,,0.08,Wunderground v.1.13,2013-10-14 01:18:00,
2013-10-13 21:24:00,62.7,61.2,30.13,North,350,2.0,2.0,95,0.09,,,0.08,Wunderground v.1.13,2013-10-14 01:24:00,
2013-10-13 21:30:00,62.6,61.1,30.13,NNW,344,1.0,2.0,95,0.17,,,0.10,Wunderground v.1.13,2013-10-14 01:30:00,
2013-10-13 21:36:00,62.6,61.1,30.13,NNW,335,1.0,1.0,95,0.07,,,0.10,Wunderground v.1.13,2013-10-14 01:36:00,
2013-10-13 21:42:00,62.4,60.9,30.13,NNW,343,1.0,2.0,95,0.04,,,0.10,Wunderground v.1.13,2013-10-14 01:42:00,
2013-10-13 21:48:00,62.4,60.9,30.13,ENE,61,1.0,1.0,95,0.00,,,0.10,Wunderground v.1.13,2013-10-14 01:48:00,
2013-10-13 21:54:00,62.3,60.8,30.13,NE,49,1.0,1.0,95,0.00,,,0.10,Wunderground v.1.13,2013-10-14 01:54:00,
2013-10-13 22:00:00,62.3,60.8,30.13,NNW,336,0.0,1.0,95,0.00,,,0.10,Wunderground v.1.13,2013-10-14 02:00:00,
2013-10-13 22:06:00,62.3,60.8,30.14,WNW,302,0.0,0.0,95,0.00,,,0.10,Wunderground v.1.13,2013-10-14 02:06:00,
2013-10-13 22:12:00,62.1,60.7,30.14,North,0,0.0,0.0,95,0.00,,,0.10,Wunderground v.1.13,2013-10-14 02:12:00,
2013-10-13 22:18:00,62.1,60.7,30.14,North,8,1.0,1.0,95,0.00,,,0.10,Wunderground v.1.13,2013-10-14 02:18:00,
2013-10-13 22:24:00,62.1,60.7,30.14,North,0,1.0,1.0,95,0.00,,,0.10,Wunderground v.1.13,2013-10-14 02:24:00,
2013-10-13 22:30:00,62.1,60.7,30.14,NNW,347,1.0,3.0,95,0.00,,,0.10,Wunderground v.1.13,2013-10-14 02:30:00,
2013-10-13 22:36:00,62.1,60.9,30.14,WNW,294,1.0,2.0,96,0.00,,,0.10,Wunderground v.1.13,2013-10-14 02:36:00,
2013-10-13 22:42:00,62.1,60.9,30.14,NNE,31,0.0,0.0,96,0.00,,,0.10,Wunderground v.1.13,2013-10-14 02:42:00,
2013-10-13 22:48:00,62.1,60.9,30.14,NW,311,0.0,0.0,96,0.00,,,0.10,Wunderground v.1.13,2013-10-14 02:48:00,
2013-10-13 22:54:00,62.0,60.8,30.14,NW,308,0.0,0.0,96,0.00,,,0.10,Wunderground v.1.13,2013-10-14 02:54:00,
2013-10-13 23:00:00,62.0,60.8,30.14,WNW,295,1.0,1.0,96,0.00,,,0.10,Wunderground v.1.13,2013-10-14 03:00:00,
2013-10-13 23:06:00,62.0,60.8,30.14,North,353,0.0,0.0,96,0.00,,,0.10,Wunderground v.1.13,2013-10-14 03:06:00,
2013-10-13 23:12:00,62.0,60.8,30.14,North,357,0.0,0.0,96,0.00,,,0.11,Wunderground v.1.13,2013-10-14 03:12:00,
2013-10-13 23:18:00,62.0,60.8,30.14,NNW,339,1.0,2.0,96,0.00,,,0.11,Wunderground v.1.13,2013-10-14 03:18:00,
2013-10-13 23:24:00,62.0,60.8,30.14,NW,322,1.0,1.0,96,0.00,,,0.11,Wunderground v.1.13,2013-10-14 03:24:00,
2013-10-13 23:30:00,62.0,60.8,30.14,North,0,1.0,1.0,96,0.00,,,0.11,Wunderground v.1.13,2013-10-14 03:30:00,
2013-10-13 23:36:00,62.0,60.8,30.14,NNE,27,0.0,0.0,96,0.00,,,0.11,Wunderground v.1.13,2013-10-14 03:36:00,
2013-10-13 23:42:00,62.0,60.8,30.14,NNW,337,0.0,1.0,96,0.00,,,0.11,Wunderground v.1.13,2013-10-14 03:42:00,
2013-10-13 23:48:00,62.0,60.8,30.13,NNW,337,0.0,3.0,96,0.00,,,0.11,Wunderground v.1.13,2013-10-14 03:48:00,
2013-10-13 23:54:00,62.0,60.8,30.13,North,356,0.0,2.0,96,0.00,,,0.11,Wunderground v.1.13,2013-10-14 03:54:00,